Location: Gerlach
(40.6516°N, 119.3568°W)
Time: 14:31:23
(UTC-07:00)

A-11 Canister half - Pass Details

Date: 25 February 2024
Orbit: 1525 x 1683 km, 47.3° (Epoch: 21 April)

Event Time Altitude Azimuth Distance (km) Brightness Sun altitude
Exits shadow 05:02:03 21° 238° (WSW) 2,910 9.9 -18.9°
Maximum altitude 05:02:40 22° 233° (SW) 2,903 10.0 -18.8°
Drops below altitude 10° 05:09:15 10° 188° (S) 3,737 10.9 -17.6°
Sets 05:13:17 0° 173° (S) 4,743 11.6 -16.8°
